Volver al catálogo

ONEWEB-0361

ActivoComunicacionesPO
NORAD 49287·PAYLOAD·🇬🇧 United Kingdom

Lanzado Oct 14, 2021 desde Vostochny Cosmodrome

Loading…

Próximos Pases (próximas 24 horas)

TLE

ActualizadoSource: CelesTrak SupGP

Época: Sep 14, 2026, 20:28 UTC

1 49287C 21090J   26257.85331435  .00003570  00000+0  87903-2 0  2576
2 49287  87.9141 256.5527 0002015  93.7370 306.4483 13.20768555    12

Sigue ONEWEB-0361 en tiempo real con AllMySat

Download on the App Store